This demonstration page uses our WeatherBlox Daily Observations layout. Learn more.

Left ArrowRight Arrow

39.29038, -76.61219

Hourly Observations for April 5, 2022

Temp ( °F °C ) Dew Point ( °F °C ) Humidity (%) Winds ( mph kmh ) Pressure ( in mb ) Visibility ( mi km ) Precip ( " mm )
12:54 am 00:54 Cloudy 48 8.9 37 2.8 66 66 Calm 30.02 1017 10 16 0.00 0.00
1:54 am 01:54 Cloudy 48 8.9 37 2.8 66 66 SE 3 6 30.02 1017 10 16 0.00 0.00
2:54 am 02:54 Mostly Cloudy 48 8.9 37 2.8 66 66 ESE 3 6 30.02 1017 10 16 0.00 0.00
3:54 am 03:54 Mostly Cloudy 47 8.3 38 3.3 71 71 Calm 30.01 1016 10 16 0.00 0.00
4:54 am 04:54 Mostly Cloudy 48 8.9 41 5 77 77 ENE 5 7 29.99 1016 10 16 0.00 0.00
5:54 am 05:54 Cloudy 48 8.9 42 5.6 80 80 ESE 6 9 29.98 1015 10 16 0.00 0.00
6:54 am 06:54 Cloudy 47 8.3 42 5.6 83 83 ESE 5 7 29.99 1016 10 16 0.00 0.00
7:54 am 07:54 Cloudy 49 9.4 43 6.1 80 80 E 5 7 30.00 1016 10 16 0.00 0.00
8:54 am 08:54 Cloudy 50 10 43 6.1 77 77 SE 6 9 30.00 1016 10 16 0.00 0.00
9:54 am 09:54 Cloudy 52 11.1 45 7.2 77 77 SSE 3 6 29.99 1016 10 16 0.00 0.00
9:57 am 09:57 Cloudy 52 11.1 45 7.2 77 77 VRB 3 6 29.99 1016 10 16 0.00 0.00
10:54 am 10:54 Cloudy with Light Rain 52 11.1 47 8.3 83 83 S 5 7 30.00 1016 7 11 0.01 0.25
11:28 am 11:28 Cloudy with Light Rain 52 11.1 48 8.9 86 86 Calm 29.99 1016 7 11 0.02 0.51
11:46 am 11:46 Cloudy with Light Rain 52 11.1 48 8.9 86 86 S 3 6 29.98 1015 6 10 0.02 0.51
11:54 am 11:54 Cloudy with Light Rain 52 11.1 48 8.9 86 86 Calm 29.98 1015 6 10 0.02 0.51
12:54 pm 12:54 Cloudy with Light Rain 52 11.1 48 8.9 86 86 SE 3 6 29.98 1015 6 10 0.02 0.51
1:41 pm 13:41 Cloudy with Light Rain 53 11.7 48 8.9 83 83 VRB 3 6 29.97 1015 7 11 0.00 0.00
1:54 pm 13:54 Cloudy 54 12.2 48 8.9 80 80 Calm 29.96 1015 7 11 0.00 0.00
2:54 pm 14:54 Cloudy with Light Rain 53 11.7 49 9.4 86 86 E 5 7 29.95 1014 6 10 0.00 0.00
3:31 pm 15:31 Partly Cloudy with Light Rain 53 11.7 50 10 89 89 ENE 7 11 29.93 1014 5 8 0.02 0.51
3:39 pm 15:39 Cloudy with Rain 54 12.2 50 10 87 87 NE 8 13 29.94 1014 4 6 0.02 0.51
3:54 pm 15:54 Cloudy with Light Rain 53 11.7 50 10 89 89 E 6 9 29.94 1014 4 6 0.03 0.76
4:23 pm 16:23 Cloudy with Light Rain 52 11.1 49 9.4 89 89 E 7 11 29.93 1014 6 10 0.00 0.00
4:54 pm 16:54 Cloudy with Light Rain 53 11.7 50 10 89 89 ESE 6 9 29.93 1013 7 11 0.00 0.00
5:17 pm 17:17 Cloudy 53 11.7 50 10 89 89 E 5 7 29.92 1013 10 16 0.00 0.00
5:18 pm 17:18 Cloudy 53 11.7 50 10 89 89 E 5 7 29.92 1013 10 16 0.00 0.00
5:54 pm 17:54 Cloudy 54 12.2 50 10 87 87 E 7 11 29.90 1013 9 14 0.00 0.00
6:54 pm 18:54 Cloudy 53 11.7 49 9.4 86 86 ENE 9 15 29.88 1012 7 11 0.00 0.00
7:54 pm 19:54 Cloudy with Light Rain 53 11.7 50 10 89 89 ENE 8 13 29.88 1012 4 6 0.00 0.00
8:20 pm 20:20 Cloudy with Light Rain 53 11.7 50 10 89 89 ENE 10 17 29.88 1012 5 8 0.03 0.76
8:54 pm 20:54 Cloudy with Light Rain 53 11.7 51 10.6 93 93 NE 12 19 29.85 1011 4 6 0.06 1.52
9:15 pm 21:15 Cloudy with Thunderstorms 53 11.7 51 10.6 93 93 ENE 12 19 29.85 1011 4 6 0.00 0.00
9:43 pm 21:43 Cloudy with Light Rain 53 11.7 51 10.6 93 93 NNE 8 13 29.84 1011 4 6 0.01 0.25
9:54 pm 21:54 Cloudy with Rain 53 11.7 51 10.6 93 93 NNE 7 11 29.83 1010 3 4 0.03 0.76
10:13 pm 22:13 Cloudy with Rain 53 11.7 51 10.6 93 93 NE 10 17 29.82 1010 2 2 0.09 2.29
10:23 pm 22:23 Cloudy with Light Rain 53 11.7 51 10.6 93 93 NE 10 17 29.81 1010 3 5 0.12 3.05
10:54 pm 22:54 Cloudy with Light Rain 54 12.2 51 10.6 90 90 ENE 14 22 29.79 1009 4 6 0.15 3.81
11:42 pm 23:42 Cloudy with Heavy Rain 53 11.7 51 10.6 93 93 ENE 14 22 29.78 1009 2 3 0.17 4.32
11:54 pm 23:54 Cloudy with Rain 53 11.7 51 10.6 93 93 ENE 14 22 29.77 1008 3 5 0.23 5.84

Powered by AerisWeather